Date String (YYYY-MM-DD hh:mm:ss) UTC,Instrument flags,absolute air pressure of the measurement (hPa),sample flow rate (lpm),inlet stack bypass flow (lpm),air temperature of the measurement (°C),ambient temperature measured by the external sensor (°C),aerosol sample conditioner tube jacket temperature (°C),OPC LED temperature (°C),internal box temperature (°C),relative humidity of the measurement (%),span deviation,mass concentration of particles derived from Lorenz-Mie calculation of OPC scattering (μg/m³),mass concentration of particles derived from Lorenz-Mie calculation of OPC scattering (μg/m³),mass concentration of particles derived from Lorenz-Mie calculation of OPC scattering (μg/m³)
DateTimeUTC,F1_M11,P_M11,Q1_M11,Q2_M11,T1_M11,T2_M11,T3_M11,T4_M11,T5_M11,U1_M11,ZSPAN_M11,X2_M11,X0_M11,X1_M11
2023-07-20 10:00:00,SystemResetWarning,0837.6,5.00,000.00,029.4,026.4,000.0,038.0,030.7,29.9,0000.0,0001.94,0004.35,0001.21
2023-07-20 10:01:00,SystemResetWarning,0837.6,5.00,000.00,029.4,026.7,000.0,038.0,030.8,29.9,0000.0,0001.92,0004.39,0001.19
2023-07-20 10:02:00,SystemResetWarning,0837.6,5.00,000.00,029.4,027.0,000.0,038.0,030.8,30.3,0000.0,0001.90,0004.31,0001.18
2023-07-20 10:03:00,SystemResetWarning,0837.7,5.00,000.00,029.4,027.2,000.0,038.0,030.8,29.9,0000.0,0001.86,0004.28,0001.17
2023-07-20 10:04:00,SystemResetWarning,0837.6,5.01,000.00,029.4,027.4,000.0,037.9,030.9,29.8,0000.0,0001.86,0004.39,0001.16
2023-07-20 10:05:00,SystemResetWarning,0837.7,4.99,000.00,029.4,027.6,000.0,037.9,030.9,30.0,0000.0,0001.90,0004.46,0001.16
2023-07-20 10:06:00,SystemResetWarning,0837.7,4.99,000.00,029.4,027.7,000.0,037.9,030.9,30.6,0000.0,0001.90,0004.43,0001.16
2023-07-20 10:07:00,SystemResetWarning,0837.7,5.00,000.00,029.4,027.8,000.0,038.0,031.0,31.7,0000.0,0001.88,0004.47,0001.15
2023-07-20 10:08:00,SystemResetWarning,0837.6,5.01,000.00,029.4,027.9,000.0,038.0,031.0,32.2,0000.0,0001.85,0004.71,0001.15
2023-07-20 10:09:00,SystemResetWarning,0837.6,5.00,000.00,029.5,028.0,000.0,038.0,031.0,32.4,0000.0,0001.83,0004.59,0001.14
2023-07-20 10:10:00,SystemResetWarning,0837.6,5.00,000.00,029.5,028.0,000.0,038.0,031.0,32.3,0000.0,0001.81,0004.62,0001.15
2023-07-20 10:11:00,SystemResetWarning,0837.6,5.00,000.00,029.5,028.1,000.0,038.0,031.1,31.9,0000.0,0001.85,0004.07,0001.16
2023-07-20 10:12:00,SystemResetWarning,0837.7,5.00,000.00,029.5,028.1,000.0,038.0,031.1,31.8,0000.0,0001.85,0003.81,0001.17
2023-07-20 10:13:00,SystemResetWarning,0837.6,5.00,000.00,029.5,028.2,000.0,038.0,031.1,31.8,0000.0,0001.83,0003.92,0001.17
2023-07-20 10:14:00,SystemResetWarning,0837.7,4.99,000.00,029.5,028.2,000.0,038.0,031.1,32.4,0000.0,0001.81,0005.51,0001.16
2023-07-20 10:15:00,SystemResetWarning,0837.7,5.00,000.00,029.6,028.2,000.0,038.0,031.1,33.0,0000.0,0001.80,0005.40,0001.17
2023-07-20 10:16:00,SystemResetWarning,0837.7,4.99,000.00,029.6,028.2,000.0,038.0,031.1,32.7,0000.0,0001.74,0005.28,0001.16
2023-07-20 10:17:00,SystemResetWarning,0837.7,5.01,000.00,029.6,028.2,000.0,038.0,031.2,32.9,0000.0,0001.72,0005.25,0001.14
2023-07-20 10:18:00,SystemResetWarning,0837.7,5.01,000.00,029.6,028.3,000.0,038.0,031.2,33.2,0000.0,0001.69,0005.20,0001.13
2023-07-20 10:19:00,SystemResetWarning,0837.8,4.99,000.00,029.6,028.3,000.0,038.1,031.2,33.2,0000.0,0001.73,0004.94,0001.14
2023-07-20 10:20:00,SystemResetWarning,0837.8,4.99,000.00,029.6,028.3,000.0,038.1,031.2,33.2,0000.0,0001.75,0005.01,0001.15
2023-07-20 10:21:00,SystemResetWarning,0837.8,4.99,000.00,029.7,028.3,000.0,038.1,031.2,33.2,0000.0,0001.80,0005.13,0001.16
2023-07-20 10:22:00,SystemResetWarning,0837.9,5.01,000.00,029.7,028.3,000.0,038.1,031.2,33.1,0000.0,0001.86,0005.29,0001.17
2023-07-20 10:23:00,SystemResetWarning,0838.0,5.01,000.00,029.7,028.3,000.0,038.1,031.2,32.9,0000.0,0001.89,0005.33,0001.20
2023-07-20 10:24:00,SystemResetWarning,0838.0,5.00,000.00,029.7,028.4,000.0,038.1,031.2,32.5,0000.0,0001.97,0005.50,0001.21
2023-07-20 10:25:00,SystemResetWarning,0838.1,4.99,000.00,029.7,028.4,000.0,038.2,031.3,32.1,0000.0,0001.99,0003.87,0001.22
2023-07-20 10:26:00,SystemResetWarning,0838.2,4.98,000.00,029.7,028.4,000.0,038.2,031.3,32.4,0000.0,0002.01,0003.75,0001.24
2023-07-20 10:27:00,SystemResetWarning,0838.2,5.00,000.00,029.7,028.4,000.0,038.2,031.3,32.8,0000.0,0002.07,0003.96,0001.28
2023-07-20 10:28:00,SystemResetWarning,0838.1,5.00,000.00,029.7,028.4,000.0,038.2,031.3,32.1,0000.0,0002.14,0004.16,0001.29
2023-07-20 10:29:00,SystemResetWarning,0838.1,5.01,000.00,029.8,028.4,000.0,038.2,031.3,31.8,0000.0,0002.20,0004.23,0001.31
2023-07-20 10:30:00,SystemResetWarning,0838.2,5.00,000.00,029.8,028.4,000.0,038.2,031.3,32.7,0000.0,0002.23,0004.27,0001.34
2023-07-20 10:31:00,SystemResetWarning,0838.2,4.99,000.00,029.8,028.5,000.0,038.2,031.3,33.6,0000.0,0002.26,0004.30,0001.36
2023-07-20 10:32:00,SystemResetWarning,0838.3,4.99,000.00,029.8,028.5,000.0,038.2,031.3,32.1,0000.0,0002.27,0004.26,0001.36
2023-07-20 10:33:00,SystemResetWarning,0838.3,4.99,000.00,029.8,028.4,000.0,038.2,031.4,31.2,0000.0,0002.30,0004.23,0001.37
2023-07-20 10:34:00,SystemResetWarning,0838.2,4.99,000.00,029.8,026.9,000.0,038.1,031.2,32.4,0000.0,0002.27,0004.15,0001.36
2023-07-20 10:35:00,SystemResetWarning,0838.3,5.01,000.00,029.7,025.4,000.0,038.0,031.0,31.8,0000.0,0002.24,0004.08,0001.36
2023-07-20 10:36:00,SystemResetWarning,0838.3,5.01,000.00,029.6,025.1,000.0,038.0,030.7,31.4,0000.0,0002.28,0004.20,0001.38
2023-07-20 10:37:00,SystemResetWarning,0838.3,5.02,000.00,029.5,025.4,000.0,038.0,030.5,31.2,0000.0,0002.25,0004.15,0001.38
2023-07-20 10:38:00,SystemResetWarning,0838.3,5.00,000.00,029.4,025.8,000.0,038.0,030.6,30.3,0000.0,0002.19,0003.99,0001.36
2023-07-20 10:39:00,SystemResetWarning,0838.3,5.00,000.00,029.4,026.2,000.0,038.0,030.6,29.9,0000.0,0002.18,0003.94,0001.36
2023-07-20 10:40:00,SystemResetWarning,0838.4,4.99,000.00,029.3,026.6,000.0,038.0,030.7,29.8,0000.0,0002.15,0003.91,0001.35
2023-07-20 10:41:00,SystemResetWarning,0838.4,5.00,000.00,029.3,026.9,000.0,038.0,030.8,29.4,0000.0,0002.14,0003.92,0001.33
2023-07-20 10:42:00,SystemResetWarning,0838.4,5.00,000.00,029.3,027.1,000.0,038.0,030.8,29.9,0000.0,0002.11,0003.90,0001.31
2023-07-20 10:43:00,SystemResetWarning,0838.4,4.99,000.00,029.3,027.3,000.0,038.0,030.8,30.9,0000.0,0002.13,0003.95,0001.32
2023-07-20 10:44:00,SystemResetWarning,0838.4,5.00,000.00,029.4,027.5,000.0,038.0,030.9,31.2,0000.0,0002.03,0003.75,0001.30
2023-07-20 10:45:00,SystemResetWarning,0838.4,5.01,000.00,029.4,027.6,000.0,037.9,030.9,31.2,0000.0,0002.03,0003.73,0001.28
2023-07-20 10:46:00,SystemResetWarning,0838.4,5.01,000.00,029.4,027.8,000.0,037.9,030.9,31.2,0000.0,0002.02,0003.69,0001.27
2023-07-20 10:47:00,SystemResetWarning,0838.4,4.99,000.00,029.4,027.9,000.0,037.9,031.0,31.1,0000.0,0002.01,0003.61,0001.27
2023-07-20 10:48:00,SystemResetWarning,0838.4,5.00,000.00,029.4,027.9,000.0,037.9,031.0,32.6,0000.0,0002.04,0003.67,0001.26
2023-07-20 10:49:00,SystemResetWarning,0838.4,5.00,000.00,029.5,028.0,000.0,038.0,031.0,33.4,0000.0,0002.07,0003.69,0001.25
2023-07-20 10:50:00,SystemResetWarning,0838.3,5.00,000.00,029.5,028.1,000.0,038.0,031.1,32.3,0000.0,0002.02,0003.54,0001.23
2023-07-20 10:51:00,SystemResetWarning,0838.3,5.00,000.00,029.5,028.1,000.0,038.0,031.1,31.9,0000.0,0001.98,0003.43,0001.23
2023-07-20 10:52:00,SystemResetWarning,0838.4,5.00,000.00,029.5,028.2,000.0,038.0,031.1,32.6,0000.0,0001.96,0003.43,0001.21
2023-07-20 10:53:00,SystemResetWarning,0838.4,4.99,000.00,029.5,028.2,000.0,038.0,031.1,32.4,0000.0,0001.92,0003.35,0001.19
2023-07-20 10:54:00,SystemResetWarning,0838.4,4.99,000.00,029.6,028.2,000.0,038.0,031.2,31.8,0000.0,0001.83,0003.18,0001.16
2023-07-20 10:55:00,SystemResetWarning,0838.4,5.01,000.00,029.6,028.3,000.0,038.0,031.2,31.6,0000.0,0001.80,0003.07,0001.15
2023-07-20 10:56:00,SystemResetWarning,0838.5,5.01,000.00,029.6,028.3,000.0,038.0,031.2,31.6,0000.0,0001.77,0003.22,0001.15
2023-07-20 10:57:00,SystemResetWarning,0838.6,5.01,000.00,029.6,028.3,000.0,038.1,031.2,31.4,0000.0,0001.76,0003.26,0001.15
2023-07-20 10:58:00,SystemResetWarning,0838.6,5.00,000.00,029.6,028.3,000.0,038.1,031.2,31.9,0000.0,0001.72,0003.19,0001.13
2023-07-20 10:59:00,SystemResetWarning,0838.6,5.00,000.00,029.7,028.3,000.0,038.1,031.2,32.8,0000.0,0001.73,0003.22,0001.12
